Time[GMT],temperature[C](5m),salinity[psu](5m),sigma_t[kg/m^3](5m),conductivity[msiemens/cm](5m),pressure[decibars](5m)
2017-05-21 18:00,8.50,28.235,21.898,30.220,5.12
2017-05-21 18:20,8.99,27.857,21.533,30.226,5.08
2017-05-21 18:40,8.99,27.960,21.614,30.326,4.98
2017-05-21 19:00,9.16,27.971,21.597,30.473,5.16
2017-05-21 19:20,8.27,28.717,22.307,30.507,5.04
2017-05-21 19:40,8.85,28.118,21.757,30.377,5.06
2017-05-21 20:00,8.84,28.192,21.817,30.437,5.01
2017-05-21 20:20,8.70,28.229,21.865,30.370,5.08
2017-05-21 20:40,8.85,28.239,21.852,30.493,5.10
2017-05-21 21:00,9.04,28.147,21.752,30.552,5.23
2017-05-21 21:20,9.14,28.316,21.869,30.800,5.14
2017-05-21 21:40,9.13,28.357,21.903,30.827,5.12
2017-05-21 22:00,8.91,28.507,22.052,30.804,5.13
2017-05-21 22:20,7.75,29.503,22.995,30.841,5.21
2017-05-21 22:40,9.13,28.547,22.051,31.015,5.12
2017-05-21 23:00,9.60,28.417,21.880,31.253,4.91
2017-05-21 23:20,9.62,28.445,21.898,31.301,5.21
2017-05-21 23:40,8.70,28.926,22.410,31.050,5.44
2017-05-22 00:00,9.15,28.718,22.181,31.202,5.21
2017-05-22 00:20,9.65,28.585,22.002,31.463,5.22
2017-05-22 00:40,9.85,28.511,21.914,31.546,5.34
2017-05-22 01:00,9.94,28.555,21.933,31.666,5.20
2017-05-22 01:20,9.68,28.555,21.975,31.455,5.22
2017-05-22 01:40,9.72,28.629,22.026,31.562,5.22
2017-05-22 02:00,9.85,28.756,22.106,31.791,5.19
2017-05-22 02:20,9.79,28.802,22.150,31.790,5.20
2017-05-22 02:40,9.71,28.880,22.224,31.806,5.17
2017-05-22 03:00,9.48,28.966,22.325,31.710,5.28
2017-05-22 03:20,10.21,29.145,22.352,32.469,5.15
2017-05-22 03:40,9.96,29.101,22.357,32.229,5.17
2017-05-22 04:00,9.20,28.792,22.232,31.313,5.25
2017-05-22 04:20,9.24,28.683,22.141,31.238,5.16
2017-05-22 04:40,9.10,28.684,22.163,31.127,5.25
2017-05-22 05:00,9.11,28.701,22.174,31.153,5.25
2017-05-22 05:20,9.10,28.727,22.196,31.170,5.21
2017-05-22 05:40,9.04,28.752,22.224,31.146,5.21
2017-05-22 06:00,9.09,28.723,22.195,31.153,5.17
2017-05-22 06:20,9.10,28.709,22.182,31.154,5.21
2017-05-22 06:40,8.81,28.964,22.424,31.170,5.20
2017-05-22 07:00,7.84,29.551,23.020,30.960,5.16
2017-05-22 07:20,7.74,29.594,23.067,30.922,5.17
2017-05-22 07:40,7.60,29.676,23.150,30.887,5.14
2017-05-22 08:00,7.59,29.715,23.182,30.914,5.17
2017-05-22 08:20,7.60,29.702,23.171,30.906,5.17
2017-05-22 08:40,7.68,29.628,23.103,30.902,5.20
2017-05-22 09:00,8.05,29.463,22.922,31.043,5.09
2017-05-22 09:20,8.42,29.420,22.836,31.303,5.12
2017-05-22 09:40,7.73,29.644,23.108,30.961,5.14
2017-05-22 10:00,9.05,29.373,22.708,31.764,5.20
2017-05-22 10:20,7.74,29.686,23.139,31.011,5.19
2017-05-22 10:40,7.51,29.851,23.299,30.978,5.17
2017-05-22 11:00,7.63,29.761,23.213,30.989,5.15
2017-05-22 11:20,7.75,29.689,23.140,31.018,5.19
2017-05-22 11:40,7.79,29.684,23.132,31.044,5.22
2017-05-22 12:00,9.16,29.358,22.681,31.834,5.21
2017-05-22 12:20,9.37,29.362,22.651,32.011,5.26
2017-05-22 12:40,9.96,29.146,22.392,32.273,5.16
2017-05-22 13:00,8.42,29.510,22.908,31.385,5.06
2017-05-22 13:20,9.28,28.915,22.316,31.497,5.17
2017-05-22 13:40,9.66,28.791,22.161,31.680,5.27
2017-05-22 14:00,9.72,28.820,22.175,31.751,5.30
2017-05-22 14:20,9.63,28.773,22.152,31.637,5.21
2017-05-22 14:40,8.84,29.098,22.525,31.321,5.23
2017-05-22 15:00,8.75,29.168,22.592,31.321,5.23
2017-05-22 15:20,8.65,28.919,22.411,31.003,5.26
2017-05-22 15:40,8.76,28.929,22.405,31.093,5.18
2017-05-22 16:00,8.95,28.859,22.322,31.177,5.23
2017-05-22 16:20,8.75,29.006,22.466,31.160,5.22
2017-05-22 16:40,8.88,28.941,22.397,31.200,5.15
2017-05-22 17:00,9.12,28.697,22.170,31.155,5.12
2017-05-22 17:20,8.86,28.950,22.406,31.196,5.20
2017-05-22 17:40,8.88,28.923,22.383,31.184,5.15
2017-05-22 18:00,8.87,28.934,22.392,31.186,5.15
2017-05-22 18:20,8.75,28.952,22.424,31.111,5.19
2017-05-22 18:40,9.19,29.139,22.505,31.641,5.15
2017-05-22 19:00,9.40,28.977,22.346,31.655,5.06
2017-05-22 19:20,9.44,28.954,22.322,31.666,5.15
2017-05-22 19:40,9.10,29.204,22.569,31.638,5.18
2017-05-22 20:00,8.95,29.304,22.670,31.611,5.00
2017-05-22 20:20,9.14,29.170,22.537,31.632,5.10
2017-05-22 20:40,9.15,29.169,22.535,31.639,5.26
2017-05-22 21:00,9.10,29.163,22.536,31.599,4.91
2017-05-22 21:20,9.36,29.019,22.385,31.663,5.22
2017-05-22 21:40,9.03,29.211,22.585,31.586,5.12
2017-05-22 22:00,9.74,28.701,22.080,31.646,5.20
2017-05-22 22:20,9.24,28.932,22.335,31.482,5.23
2017-05-22 22:40,9.57,29.009,22.346,31.818,4.77
2017-05-22 23:00,9.10,29.163,22.538,31.592,5.12
2017-05-22 23:20,8.37,29.425,22.848,31.264,4.89
2017-05-22 23:40,9.01,29.367,22.710,31.720,4.82
2017-05-23 00:00,9.84,29.164,22.425,32.194,5.18
2017-05-23 00:20,9.76,29.183,22.453,32.144,5.13
2017-05-23 00:40,9.73,29.193,22.465,32.133,5.09
2017-05-23 01:00,9.84,29.133,22.400,32.160,5.29
2017-05-23 01:20,9.67,29.201,22.480,32.092,4.92
2017-05-23 01:40,9.73,29.177,22.452,32.114,4.89
2017-05-23 02:00,9.65,29.192,22.476,32.067,5.14
2017-05-23 02:20,9.67,29.193,22.474,32.081,4.82
2017-05-23 02:40,9.65,29.186,22.471,32.062,5.16
2017-05-23 03:00,9.73,29.151,22.431,32.094,5.19
2017-05-23 03:20,9.74,29.166,22.443,32.111,5.33
2017-05-23 03:40,9.75,29.164,22.440,32.117,5.26
2017-05-23 04:00,9.76,29.164,22.437,32.124,5.09
2017-05-23 04:20,9.74,29.197,22.467,32.141,5.01
2017-05-23 04:40,9.69,29.222,22.493,32.127,5.18
2017-05-23 05:00,9.75,29.245,22.502,32.199,4.92
2017-05-23 05:20,9.77,29.222,22.480,32.196,4.90
2017-05-23 05:40,9.51,29.136,22.454,31.900,5.24
2017-05-23 06:00,9.48,29.089,22.421,31.831,5.03
2017-05-23 06:20,9.72,29.207,22.477,32.137,5.07
2017-05-23 06:40,9.74,29.229,22.491,32.178,4.99
2017-05-23 07:00,9.71,29.192,22.467,32.112,5.23
2017-05-23 07:20,9.73,29.230,22.493,32.171,5.10
2017-05-23 07:40,9.72,29.234,22.499,32.162,5.08
2017-05-23 08:00,9.71,29.235,22.501,32.156,5.04
2017-05-23 08:20,9.68,29.190,22.470,32.091,5.13
2017-05-23 08:40,9.70,29.190,22.467,32.101,5.07
2017-05-23 09:00,9.70,29.180,22.459,32.096,5.02
2017-05-23 09:20,9.69,29.186,22.466,32.089,5.16
2017-05-23 09:40,9.67,29.162,22.449,32.055,5.03
2017-05-23 10:00,9.66,29.150,22.441,32.035,5.18
2017-05-23 10:20,9.68,29.167,22.451,32.068,5.15
2017-05-23 10:40,9.69,29.184,22.464,32.089,5.05
2017-05-23 11:00,9.70,29.187,22.465,32.103,5.16
2017-05-23 11:20,9.70,29.191,22.467,32.105,5.01
2017-05-23 11:40,9.70,29.197,22.472,32.114,5.12
2017-05-23 12:00,9.70,29.184,22.462,32.101,5.09
2017-05-23 12:20,9.71,29.187,22.463,32.108,4.93
2017-05-23 12:40,9.71,29.183,22.460,32.104,5.22
2017-05-23 13:00,9.71,29.164,22.446,32.083,5.10
2017-05-23 13:20,9.71,29.143,22.429,32.064,4.87
2017-05-23 13:40,9.71,29.172,22.452,32.093,5.11
2017-05-23 14:00,9.70,29.159,22.443,32.070,5.09
2017-05-23 14:20,9.70,29.173,22.453,32.088,5.08
2017-05-23 14:40,9.71,29.185,22.462,32.105,5.01
2017-05-23 15:00,9.73,29.170,22.447,32.104,4.98
2017-05-23 15:20,9.72,29.099,22.392,32.030,5.05
2017-05-23 15:40,9.72,29.125,22.413,32.057,5.21
2017-05-23 16:00,9.69,28.974,22.300,31.885,4.88
2017-05-23 16:20,9.71,29.103,22.398,32.027,5.08
2017-05-23 16:40,9.70,29.095,22.393,32.006,5.07
2017-05-23 17:00,9.67,29.018,22.336,31.913,5.15
2017-05-23 17:20,9.59,28.786,22.169,31.616,5.02
2017-05-23 17:40,9.63,28.762,22.144,31.622,4.99
2017-05-23 18:00,9.62,28.799,22.175,31.649,5.03
2017-05-23 18:20,9.49,28.904,22.277,31.650,4.90
2017-05-23 18:40,9.45,28.971,22.335,31.684,5.08
2017-05-23 19:00,9.24,29.045,22.424,31.592,5.26
2017-05-23 19:20,9.32,28.900,22.298,31.513,4.86
2017-05-23 19:40,9.28,28.866,22.279,31.447,5.00
2017-05-23 20:00,9.26,28.858,22.275,31.422,4.91
2017-05-23 20:20,9.21,28.913,22.325,31.438,4.96
2017-05-23 20:40,9.23,28.887,22.303,31.427,5.01
2017-05-23 21:00,9.33,28.796,22.216,31.418,5.09
2017-05-23 21:20,9.37,28.703,22.138,31.357,5.14
2017-05-23 21:40,9.33,28.765,22.192,31.389,5.11
2017-05-23 22:00,9.19,28.953,22.360,31.463,5.06
2017-05-23 22:20,9.27,28.883,22.293,31.453,5.12
2017-05-23 22:40,9.35,28.803,22.218,31.444,5.09
2017-05-23 23:00,9.63,28.838,22.202,31.701,5.03
2017-05-23 23:20,9.59,28.931,22.282,31.761,4.99
2017-05-23 23:40,9.58,29.117,22.428,31.939,5.07
2017-05-24 00:00,9.77,29.026,22.328,32.002,5.04
2017-05-24 00:20,9.72,29.130,22.417,32.058,5.04
2017-05-24 00:40,9.80,28.992,22.298,31.986,5.07
2017-05-24 01:20,9.52,28.973,22.326,31.743,5.06
2017-05-24 01:40,9.67,28.967,22.298,31.860,4.95
2017-05-24 02:00,9.87,28.931,22.239,31.979,4.99
2017-05-24 02:20,9.82,28.946,22.257,31.961,5.19
2017-05-24 02:40,9.64,28.785,22.159,31.657,5.07
2017-05-24 03:00,9.77,28.868,22.206,31.837,5.12
2017-05-24 03:20,10.14,28.985,22.239,32.251,5.11
2017-05-24 03:40,10.18,28.983,22.230,32.283,5.04
2017-05-24 04:00,10.20,28.971,22.218,32.284,5.14
2017-05-24 04:20,9.69,29.128,22.421,32.032,5.05
2017-05-24 04:40,9.88,28.828,22.157,31.884,5.04
2017-05-24 05:00,9.62,29.028,22.352,31.880,5.15
2017-05-24 05:20,9.63,28.791,22.166,31.650,4.97
2017-05-24 05:40,9.06,29.122,22.511,31.522,4.97
2017-05-24 06:00,9.18,29.023,22.416,31.520,5.02
2017-05-24 06:20,9.34,28.909,22.302,31.541,5.01
2017-05-24 06:40,9.43,28.827,22.225,31.530,5.09
2017-05-24 07:00,9.29,29.040,22.412,31.628,5.11
2017-05-24 07:20,9.02,29.181,22.563,31.548,5.06
2017-05-24 07:40,9.44,28.903,22.284,31.608,5.00
2017-05-24 08:00,9.37,28.879,22.275,31.531,4.93
2017-05-24 08:20,9.28,28.950,22.344,31.533,5.04
2017-05-24 08:40,9.06,29.193,22.567,31.589,5.09
2017-05-24 09:00,9.07,29.179,22.554,31.583,4.91
2017-05-24 09:20,9.33,29.071,22.431,31.690,5.07
2017-05-24 09:40,9.05,29.229,22.596,31.621,5.17
2017-05-24 10:00,9.09,29.192,22.561,31.617,5.08
2017-05-24 10:20,8.95,29.273,22.646,31.581,5.12
2017-05-24 10:40,8.87,29.396,22.753,31.640,5.01
2017-05-24 11:00,8.95,29.304,22.669,31.614,5.07
2017-05-24 11:20,8.73,29.361,22.746,31.492,5.01
2017-05-24 11:40,9.03,29.251,22.617,31.624,5.05
2017-05-24 12:00,8.56,29.496,22.876,31.490,5.02
2017-05-24 12:20,8.89,29.288,22.666,31.551,4.97
2017-05-24 12:40,8.52,29.555,22.928,31.509,5.07
2017-05-24 13:00,8.78,29.373,22.749,31.541,5.18
2017-05-24 13:20,8.89,29.269,22.650,31.532,5.11
2017-05-24 13:40,9.13,29.162,22.531,31.622,5.07
2017-05-24 14:00,9.10,29.150,22.527,31.583,5.07
2017-05-24 14:20,9.55,28.739,22.138,31.537,4.99
2017-05-24 14:40,9.29,28.935,22.332,31.520,5.07
2017-05-24 15:00,9.68,28.516,21.945,31.414,4.99
2017-05-24 15:20,9.78,28.185,21.671,31.166,5.01
2017-05-24 15:40,9.66,28.423,21.875,31.306,4.98
2017-05-24 16:00,9.97,27.882,21.405,31.012,5.03
2017-05-24 16:20,9.77,28.094,21.601,31.068,5.24
2017-05-24 16:40,10.09,27.660,21.215,30.875,5.06
2017-05-24 17:00,10.04,27.681,21.238,30.858,5.07
2017-05-24 17:20,9.95,27.761,21.314,30.874,5.01
2017-05-24 17:40,9.57,28.409,21.878,31.223,5.09
2017-05-24 18:00,9.87,28.152,21.632,31.199,5.03
2017-05-24 18:20,9.92,27.956,21.472,31.042,5.03
2017-05-24 18:40,10.01,27.994,21.486,31.152,5.09
2017-05-24 19:00,10.10,28.042,21.511,31.268,5.09
2017-05-24 19:20,9.79,28.321,21.776,31.306,5.01
2017-05-24 19:40,9.65,28.506,21.941,31.386,5.04
2017-05-24 20:00,10.39,27.931,21.378,31.383,4.99
2017-05-24 20:20,10.15,28.015,21.481,31.287,5.17
2017-05-24 20:40,10.44,27.826,21.287,31.320,4.98
2017-05-24 21:00,10.06,28.035,21.510,31.233,4.99
2017-05-24 21:20,10.08,27.946,21.438,31.162,4.96
2017-05-24 21:40,9.94,27.886,21.413,30.993,5.11
2017-05-24 22:00,9.84,28.020,21.532,31.051,5.09
2017-05-24 22:20,9.73,28.238,21.719,31.182,5.03
2017-05-24 22:40,9.63,28.508,21.946,31.373,5.07
2017-05-24 23:00,9.17,28.986,22.389,31.476,4.97
2017-05-24 23:20,8.60,29.361,22.765,31.389,5.20
2017-05-24 23:40,8.41,29.562,22.949,31.427,5.08
2017-05-25 00:00,8.89,29.208,22.603,31.473,4.90
2017-05-25 00:20,8.89,29.213,22.607,31.477,5.02
2017-05-25 00:40,8.86,29.244,22.635,31.487,5.14
2017-05-25 01:00,9.00,29.168,22.555,31.522,5.13
2017-05-25 01:20,8.74,29.334,22.724,31.470,5.09
2017-05-25 01:40,8.79,29.341,22.722,31.517,4.95
2017-05-25 02:00,9.16,29.028,22.422,31.515,5.05
2017-05-25 02:20,9.19,28.999,22.395,31.510,5.11
2017-05-25 02:40,10.17,28.310,21.707,31.597,4.90
2017-05-25 03:00,10.57,27.620,21.107,31.208,5.10
2017-05-25 03:20,10.08,28.451,21.831,31.669,5.06
2017-05-25 03:40,10.02,28.521,21.895,31.694,5.07
2017-05-25 04:00,10.39,28.229,21.609,31.690,5.00
2017-05-25 04:20,10.48,28.246,21.608,31.777,5.17
2017-05-25 04:40,9.56,28.835,22.212,31.637,5.05
2017-05-25 05:00,9.47,28.891,22.269,31.620,5.03
2017-05-25 05:20,9.83,28.561,21.956,31.581,5.08
2017-05-25 05:40,10.03,28.369,21.776,31.548,5.18
2017-05-25 06:00,10.18,28.175,21.600,31.471,5.28
2017-05-25 06:20,10.20,28.075,21.519,31.385,4.92
2017-05-25 06:40,10.11,28.096,21.550,31.335,5.05
2017-05-25 07:00,10.12,27.940,21.428,31.181,5.09
2017-05-25 07:20,10.14,27.870,21.371,31.126,5.03
2017-05-25 07:40,10.16,27.816,21.325,31.087,5.13
2017-05-25 08:00,9.99,28.000,21.494,31.146,5.06
2017-05-25 08:20,10.13,27.847,21.353,31.100,5.10
2017-05-25 08:40,10.23,27.762,21.272,31.086,5.01
2017-05-25 09:00,10.19,27.780,21.291,31.081,5.11
2017-05-25 09:20,10.22,27.768,21.278,31.085,5.05
2017-05-25 09:40,10.16,27.829,21.335,31.102,5.12
2017-05-25 10:00,10.12,27.877,21.379,31.118,5.12
2017-05-25 10:20,10.07,27.951,21.444,31.154,5.05
2017-05-25 10:40,10.00,28.084,21.557,31.239,4.98
2017-05-25 11:00,9.40,28.617,22.065,31.300,5.12
2017-05-25 11:20,9.94,28.394,21.809,31.502,5.04
2017-05-25 11:40,9.77,28.483,21.905,31.456,5.11
2017-05-25 12:00,9.39,28.867,22.262,31.539,5.12
2017-05-25 12:20,9.24,29.112,22.476,31.659,4.89
2017-05-25 12:40,9.24,29.133,22.493,31.675,5.16
2017-05-25 13:00,9.29,29.111,22.468,31.695,5.08
2017-05-25 13:20,9.32,29.090,22.447,31.701,5.07
2017-05-25 13:40,10.44,28.106,21.506,31.603,4.97
2017-05-25 14:00,10.47,28.126,21.517,31.643,5.09
2017-05-25 14:20,10.45,28.157,21.543,31.666,5.17
2017-05-25 14:40,10.28,28.421,21.776,31.798,5.11
2017-05-25 15:00,10.43,28.321,21.675,31.810,4.98
2017-05-25 15:20,10.53,27.165,20.759,30.714,5.00
2017-05-25 15:40,10.48,27.856,21.305,31.378,5.14
2017-05-25 16:00,10.50,26.979,20.620,30.497,5.05
2017-05-25 16:20,10.43,27.267,20.854,30.743,4.87
2017-05-25 16:40,10.38,27.087,20.723,30.519,4.82
2017-05-25 17:00,10.22,26.844,20.558,30.151,4.91
2017-05-25 17:20,10.14,27.336,20.955,30.587,4.90
2017-05-25 17:40,10.03,27.387,21.011,30.553,5.04
2017-05-25 18:00,9.95,27.301,20.956,30.408,4.85
2017-05-25 18:20,9.74,27.221,20.926,30.165,4.98
2017-05-25 18:40,9.62,27.224,20.947,30.078,5.05
2017-05-25 19:00,9.56,27.218,20.950,30.031,5.00
2017-05-25 19:20,9.47,27.213,20.960,29.957,4.78
2017-05-25 19:40,9.55,27.239,20.969,30.042,5.03
2017-05-25 20:00,9.65,27.292,20.994,30.175,4.55
2017-05-25 20:20,9.70,27.372,21.049,30.292,5.01
2017-05-25 20:40,9.73,27.408,21.072,30.352,4.89
2017-05-25 21:00,9.71,27.497,21.146,30.420,4.92
2017-05-25 21:20,9.55,27.527,21.193,30.330,4.91
2017-05-25 21:40,9.78,27.390,21.051,30.372,4.96
2017-05-25 22:00,9.95,27.346,20.991,30.456,4.83
2017-05-25 22:20,10.02,27.427,21.043,30.592,4.74
2017-05-25 22:40,9.90,27.725,21.294,30.799,4.50
2017-05-25 23:00,9.04,27.976,21.618,30.386,4.58
2017-05-25 23:20,8.77,28.258,21.878,30.447,4.61
2017-05-25 23:40,8.61,28.594,22.164,30.648,4.94
2017-05-26 00:00,8.48,28.991,22.492,30.938,4.65
2017-05-26 00:20,8.44,29.293,22.735,31.192,4.80
2017-05-26 00:40,8.44,29.308,22.746,31.208,4.89
2017-05-26 01:00,8.54,29.422,22.821,31.399,5.01
2017-05-26 01:20,8.57,29.515,22.890,31.512,4.44
2017-05-26 01:40,8.63,29.712,23.035,31.751,4.41
2017-05-26 02:00,8.80,29.284,22.676,31.470,4.71
2017-05-26 02:20,8.81,29.272,22.666,31.468,4.69
2017-05-26 02:40,8.70,29.293,22.698,31.401,4.65
2017-05-26 03:00,8.67,29.111,22.560,31.197,4.48
2017-05-26 03:20,8.49,29.427,22.833,31.361,4.66
2017-05-26 03:40,8.42,29.548,22.936,31.427,5.04
2017-05-26 04:00,8.55,29.505,22.885,31.484,4.74
2017-05-26 04:20,8.50,29.627,22.987,31.565,4.56
2017-05-26 04:40,8.53,29.647,22.999,31.608,4.85
2017-05-26 05:00,8.61,29.630,22.974,31.656,4.75
2017-05-26 05:20,8.70,29.378,22.763,31.485,4.97
2017-05-26 05:40,8.51,29.472,22.865,31.421,4.70
2017-05-26 06:00,8.47,29.543,22.927,31.457,4.57
2017-05-26 06:20,8.33,29.433,22.860,31.239,4.85
2017-05-26 06:40,8.45,29.297,22.737,31.203,4.46
2017-05-26 07:00,8.59,29.030,22.507,31.056,4.30
2017-05-26 07:20,8.50,29.249,22.691,31.201,4.34
2017-05-26 07:40,8.82,28.773,22.273,30.993,5.05
2017-05-26 08:00,8.76,29.015,22.471,31.179,4.38
2017-05-26 08:20,8.99,28.788,22.261,31.139,4.57
2017-05-26 08:40,8.87,29.007,22.449,31.256,5.13
2017-05-26 09:00,8.96,28.825,22.294,31.150,4.69
2017-05-26 09:20,8.71,29.036,22.494,31.163,5.10
2017-05-26 09:40,8.64,29.074,22.535,31.139,4.45
2017-05-26 10:00,8.61,29.123,22.577,31.168,5.11
2017-05-26 10:20,8.65,28.932,22.423,31.011,4.61
2017-05-26 10:40,8.60,29.041,22.515,31.077,4.83
2017-05-26 11:00,8.59,29.061,22.531,31.093,4.45
2017-05-26 11:20,8.46,29.163,22.630,31.086,4.89
2017-05-26 11:40,8.41,29.282,22.730,31.161,4.71
2017-05-26 12:00,8.45,29.292,22.732,31.202,4.74
2017-05-26 12:20,8.48,29.400,22.813,31.327,4.98
2017-05-26 12:40,8.37,29.473,22.885,31.312,4.72
2017-05-26 13:00,8.31,29.699,23.071,31.478,4.85
2017-05-26 13:20,8.50,29.589,22.958,31.523,4.52
2017-05-26 13:40,8.60,29.457,22.840,31.481,4.91
2017-05-26 14:00,8.64,29.369,22.765,31.427,4.98
2017-05-26 14:20,8.62,29.419,22.807,31.459,4.64
2017-05-26 14:40,8.51,29.731,23.067,31.674,5.03
2017-05-26 15:00,8.55,29.574,22.939,31.550,5.07
2017-05-26 15:20,8.59,29.414,22.808,31.430,4.82
2017-05-26 15:40,8.53,29.627,22.983,31.591,4.78
2017-05-26 16:00,8.57,29.522,22.896,31.515,4.92
2017-05-26 16:20,8.58,29.478,22.859,31.482,5.01
2017-05-26 16:40,8.56,29.549,22.917,31.538,5.00
2017-05-26 17:00,8.57,29.541,22.910,31.537,4.61
2017-05-26 17:20,8.58,29.519,22.891,31.528,5.03
2017-05-26 17:40,8.60,29.485,22.862,31.508,4.78
2017-05-26 18:00,8.60,29.496,22.870,31.517,4.91
2017-05-26 18:20,8.69,29.372,22.760,31.473,4.90
2017-05-26 18:40,8.65,29.422,22.806,31.485,5.07
2017-05-26 19:00,8.68,29.400,22.784,31.491,4.94
2017-05-26 19:20,8.67,29.422,22.802,31.505,4.83
2017-05-26 19:40,8.79,29.243,22.645,31.427,4.93
2017-05-26 20:00,8.81,29.320,22.702,31.516,4.47
2017-05-26 20:20,8.82,29.308,22.692,31.511,4.99
2017-05-26 20:40,8.84,29.317,22.696,31.535,4.94
2017-05-26 21:00,8.81,29.364,22.737,31.562,4.78
2017-05-26 21:20,8.76,29.405,22.777,31.555,4.76
2017-05-26 21:40,8.75,29.414,22.784,31.561,4.93
2017-05-26 22:00,8.82,29.362,22.733,31.567,4.85
2017-05-26 22:20,8.83,29.345,22.720,31.553,4.85
2017-05-26 22:40,8.76,29.380,22.757,31.532,5.03
2017-05-26 23:00,8.81,29.357,22.732,31.549,5.06
2017-05-26 23:20,8.80,29.371,22.744,31.556,5.11
2017-05-26 23:40,9.03,29.183,22.563,31.557,5.02
2017-05-27 00:00,8.89,29.305,22.679,31.567,4.89
2017-05-27 00:20,8.63,29.504,22.872,31.553,5.16
2017-05-27 00:40,8.88,29.321,22.693,31.574,4.98
2017-05-27 01:00,8.75,29.418,22.787,31.566,5.01
2017-05-27 01:20,8.67,29.474,22.843,31.557,5.15
2017-05-27 01:40,8.56,29.557,22.924,31.544,5.24
2017-05-27 02:00,8.54,29.575,22.941,31.549,4.87
2017-05-27 02:20,8.52,29.596,22.961,31.550,5.07
2017-05-27 02:40,8.49,29.628,22.989,31.558,4.85
2017-05-27 03:00,8.48,29.641,23.001,31.560,4.98
2017-05-27 03:20,8.48,29.639,22.999,31.562,5.05
2017-05-27 03:40,8.48,29.667,23.022,31.584,4.98
2017-05-27 04:00,8.95,29.299,22.665,31.611,5.01
2017-05-27 04:20,8.72,29.504,22.859,31.622,4.96
2017-05-27 04:40,8.61,29.602,22.953,31.625,4.99
2017-05-27 05:00,8.60,29.616,22.965,31.632,5.13
2017-05-27 05:20,8.65,29.565,22.917,31.624,4.91
2017-05-27 05:40,8.56,29.621,22.974,31.608,5.07
2017-05-27 06:00,8.57,29.618,22.971,31.608,5.01
2017-05-27 06:20,8.55,29.627,22.980,31.606,5.11
2017-05-27 06:40,8.58,29.604,22.958,31.603,5.08
2017-05-27 07:00,8.58,29.600,22.955,31.605,5.18
2017-05-27 07:20,8.64,29.545,22.903,31.601,4.97
2017-05-27 07:40,8.72,29.477,22.838,31.599,5.09
2017-05-27 08:00,8.75,29.465,22.825,31.606,5.05
2017-05-27 08:20,8.50,29.713,23.055,31.645,5.02
2017-05-27 08:40,8.38,29.874,23.198,31.705,5.10
2017-05-27 09:00,8.35,29.895,23.219,31.697,4.99
2017-05-27 09:20,8.35,29.881,23.207,31.690,5.02
2017-05-27 09:40,8.24,29.975,23.297,31.685,5.10
2017-05-27 10:00,8.30,29.879,23.212,31.646,5.10
2017-05-27 10:20,8.22,29.903,23.243,31.605,5.07
2017-05-27 10:40,8.25,29.842,23.192,31.564,5.00
2017-05-27 11:00,8.21,29.880,23.227,31.567,5.15
2017-05-27 11:20,8.17,29.929,23.271,31.588,5.06
2017-05-27 11:40,8.17,29.919,23.262,31.579,5.08
2017-05-27 12:00,8.20,29.899,23.243,31.583,5.07
2017-05-27 12:20,8.30,29.850,23.191,31.616,5.11
2017-05-27 12:40,8.16,30.044,23.363,31.687,5.12
2017-05-27 13:00,8.13,30.170,23.465,31.784,5.01
2017-05-27 13:20,8.48,29.688,23.039,31.604,4.99
2017-05-27 13:40,8.89,29.314,22.686,31.579,5.11
2017-05-27 14:00,8.56,29.617,22.971,31.605,5.05
2017-05-27 14:20,8.55,29.662,23.008,31.635,5.08
2017-05-27 14:40,8.88,29.422,22.773,31.669,5.10
2017-05-27 15:00,8.32,29.864,23.198,31.648,5.02
2017-05-27 15:20,8.23,29.986,23.307,31.689,5.15
2017-05-27 15:40,8.98,29.344,22.697,31.674,4.93
2017-05-27 16:00,8.77,29.491,22.842,31.651,5.02
2017-05-27 16:20,8.28,29.937,23.261,31.682,5.05
2017-05-27 16:40,8.56,29.715,23.048,31.696,5.05
2017-05-27 17:00,8.67,29.648,22.979,31.723,4.99
2017-05-27 17:20,8.88,29.449,22.793,31.699,5.14
2017-05-27 17:40,8.86,29.463,22.807,31.694,5.00
2017-05-27 18:00,8.93,29.414,22.758,31.706,5.04
2017-05-27 18:20,9.02,29.340,22.687,31.705,4.97
2017-05-27 18:40,9.06,29.309,22.657,31.706,4.99
2017-05-27 19:00,9.12,29.271,22.619,31.715,5.00
2017-05-27 19:20,9.15,29.239,22.589,31.711,5.03
2017-05-27 19:40,9.21,29.152,22.512,31.674,4.96
2017-05-27 20:00,9.19,29.218,22.567,31.720,5.14
2017-05-27 20:20,8.93,29.430,22.771,31.719,4.90
2017-05-27 20:40,8.88,29.442,22.787,31.691,5.07
2017-05-27 21:00,8.99,29.375,22.718,31.718,4.99
2017-05-27 21:20,9.17,29.269,22.609,31.754,5.09
2017-05-27 21:40,9.34,29.115,22.463,31.742,5.12
2017-05-27 22:00,9.46,28.870,22.254,31.595,5.09
2017-05-27 22:20,8.98,29.341,22.694,31.673,4.99
2017-05-27 22:40,8.95,29.364,22.716,31.671,4.98
2017-05-27 23:00,9.24,29.089,22.459,31.633,5.01
2017-05-27 23:20,9.57,28.696,22.102,31.511,5.07
2017-05-27 23:40,9.46,28.822,22.216,31.550,5.15
2017-05-28 00:00,9.66,28.541,21.967,31.423,5.00
2017-05-28 00:20,9.74,28.316,21.780,31.263,5.05
2017-05-28 00:40,9.62,28.518,21.954,31.375,5.12
2017-05-28 01:00,9.55,28.591,22.022,31.394,5.10
2017-05-28 01:20,9.51,28.655,22.080,31.420,5.10
2017-05-28 01:40,9.39,28.819,22.225,31.491,5.08
2017-05-28 02:00,9.28,28.961,22.353,31.539,5.14
2017-05-28 02:20,9.31,29.043,22.411,31.649,5.09
2017-05-28 02:40,9.24,29.059,22.434,31.608,4.98
2017-05-28 03:00,9.24,29.084,22.455,31.630,5.13
2017-05-28 03:20,9.26,29.112,22.474,31.671,5.16
2017-05-28 03:40,9.26,29.111,22.472,31.675,5.09
2017-05-28 04:00,9.19,29.168,22.527,31.671,5.09
2017-05-28 04:20,9.17,29.188,22.547,31.672,5.03
2017-05-28 04:40,9.07,29.255,22.613,31.665,5.18
2017-05-28 05:00,9.20,29.151,22.512,31.668,5.04
2017-05-28 05:20,9.20,29.099,22.472,31.617,5.05
2017-05-28 05:40,9.22,29.064,22.443,31.591,5.09
2017-05-28 06:00,9.54,28.747,22.146,31.540,5.19
2017-05-28 06:20,9.30,28.932,22.326,31.530,5.11
2017-05-28 06:40,9.29,28.960,22.350,31.547,5.28
2017-05-28 07:00,9.20,29.048,22.432,31.565,5.14
2017-05-28 07:20,9.27,28.992,22.378,31.567,5.14
2017-05-28 07:40,9.31,29.114,22.467,31.713,5.18
2017-05-28 08:00,9.18,29.160,22.523,31.654,5.20
2017-05-28 08:20,9.13,29.204,22.565,31.657,5.11
2017-05-28 08:40,9.09,29.274,22.625,31.697,5.12
2017-05-28 09:00,9.41,28.920,22.300,31.607,5.06
2017-05-28 09:20,9.53,28.939,22.298,31.717,5.12
2017-05-28 09:40,9.27,29.172,22.519,31.737,5.15
2017-05-28 10:00,9.13,29.278,22.622,31.734,5.17
2017-05-28 10:20,8.99,29.363,22.711,31.699,5.03
2017-05-28 10:40,8.53,29.732,23.065,31.690,5.09
2017-05-28 11:00,8.57,29.693,23.029,31.682,5.13
2017-05-28 11:20,8.55,29.697,23.035,31.672,5.04
2017-05-28 11:40,8.71,29.596,22.932,31.707,5.01
2017-05-28 12:00,8.71,29.620,22.952,31.724,5.18